Location: Briis
(48.6240°N, 2.1211°E)
Time: 07:35:59
(UTC+00:00)

Cosmos 1536 - Pass Details

Date: 25 September 2020
Orbit: 541 x 558 km, 82.5° (Epoch: 21 October)

Event Time Altitude Azimuth Distance (km) Brightness Sun altitude
Rises 03:17:35 0° 354° (N) 2,757 6.7 -23.9°
Reaches altitude 10° 03:19:49 10° 359° (N) 1,857 5.8 -23.6°
Maximum altitude 03:23:50 54° 77° (ENE) 681 3.5 -23.0°
Drops below altitude 10° 03:27:49 10° 156° (SSE) 1,837 5.5 -22.4°
Sets 03:30:00 0° 161° (SSE) 2,725 6.3 -22.1°
